This demonstration page uses our WeatherBlox Daily Observations layout. Learn more.

Left ArrowRight Arrow

Hourly Observations for December 7, 2020

Temp ( °F °C ) Dew Point ( °F °C ) Humidity (%) Winds ( mph kmh ) Pressure ( in mb ) Visibility ( mi km ) Precip ( " mm )
12:15 am 00:15 Clear 35 1.4 24 -4.4 66 66 W 6 9 30.22 1023 10 16 N/A
12:35 am 00:35 Clear 33 0.8 24 -4.5 68 68 W 7 11 30.23 1024 10 16 N/A
12:55 am 00:55 Clear 32 undefined 23 -4.9 70 70 W 6 9 30.23 1024 10 16 N/A
1:15 am 01:15 Clear 33 0.4 24 -4.4 71 71 W 8 13 30.22 1023 10 16 N/A
1:35 am 01:35 Clear 34 1.1 24 -4.6 66 66 W 7 11 30.21 1023 10 16 N/A
1:55 am 01:55 Clear 33 0.5 23 -5.2 66 66 W 7 11 30.22 1023 10 16 N/A
2:15 am 02:15 Clear 32 undefined 22 -5.3 68 68 WNW 6 9 30.23 1024 10 16 N/A
2:35 am 02:35 Clear 31 -0.4 22 -5.7 68 68 WNW 9 15 30.23 1024 10 16 N/A
2:55 am 02:55 Clear 31 -0.6 22 -5.6 69 69 WNW 8 13 30.23 1024 10 16 N/A
3:15 am 03:15 Clear 30 -1 21 -6 69 69 WNW 6 9 30.24 1024 10 16 N/A
3:35 am 03:35 Clear 30 -1.2 22 -5.6 72 72 WNW 7 11 30.25 1024 10 16 N/A
3:55 am 03:55 Clear 30 -1 22 -5.6 71 71 NW 10 17 30.24 1024 10 16 N/A
4:15 am 04:15 Clear 32 0.2 23 -4.8 69 69 WNW 8 13 30.22 1023 10 16 N/A
4:35 am 04:35 Clear 32 -0.1 22 -5.6 67 67 NW 9 15 30.24 1024 10 16 N/A
4:55 am 04:55 Clear 32 0.1 22 -5.3 67 67 WNW 8 13 30.23 1024 10 16 N/A
5:15 am 05:15 Clear 33 0.6 22 -5.5 64 64 WNW 9 15 30.22 1023 10 16 N/A
5:35 am 05:35 Clear 32 undefined 22 -5.8 65 65 WNW 10 17 30.24 1024 10 16 N/A
5:55 am 05:55 Clear 32 undefined 22 -5.7 66 66 WNW 9 15 30.24 1024 10 16 N/A
6:15 am 06:15 Clear 32 -0.2 21 -6 65 65 WNW 6 9 30.24 1024 10 16 N/A
6:35 am 06:35 Clear 32 undefined 21 -6.3 63 63 WNW 9 15 30.25 1024 10 16 N/A
6:55 am 06:55 Clear 33 0.5 21 -6.2 61 61 WNW 8 13 30.24 1024 10 16 N/A
7:15 am 07:15 Clear 33 0.7 21 -6 61 61 NW 10 17 30.25 1024 10 16 N/A
7:35 am 07:35 Clear 33 0.3 21 -6 63 63 WNW 9 15 30.25 1024 10 16 N/A
7:55 am 07:55 Sunny 34 1 21 -6.3 59 59 WNW 9 15 30.25 1024 10 16 N/A
8:15 am 08:15 Sunny 34 1 20 -6.5 58 58 WNW 9 15 30.25 1024 10 16 N/A
8:35 am 08:35 Sunny 35 1.8 21 -6 57 57 NW 10 17 30.25 1024 10 16 N/A
8:55 am 08:55 Sunny 37 2.8 22 -5.8 54 54 NW 10 17 30.24 1024 10 16 N/A
9:15 am 09:15 Sunny 39 4 21 -5.9 49 49 NW 12 19 30.24 1024 10 16 N/A
9:35 am 09:35 Sunny 42 5.5 21 -6 44 44 NW 12 19 30.22 1023 10 16 N/A
9:55 am 09:55 Sunny 44 6.4 21 -6.2 40 40 NW 13 20 30.22 1023 10 16 N/A
10:15 am 10:15 Sunny 46 7.6 20 -6.5 36 36 NW 12 19 30.20 1023 10 16 N/A
10:35 am 10:35 Sunny 47 8.4 20 -6.8 34 34 NW 14 22 30.21 1023 10 16 N/A
10:55 am 10:55 Sunny 48 9.1 20 -6.8 32 32 NW 14 22 30.20 1023 10 16 N/A
11:15 am 11:15 Sunny 50 9.8 20 -6.6 31 31 NW 13 20 30.18 1022 10 16 N/A
11:35 am 11:35 Sunny 52 10.9 20 -6.5 29 29 NW 14 22 30.17 1022 10 16 N/A
11:55 am 11:55 Sunny 53 11.5 20 -6.7 28 28 NNW 14 22 30.16 1021 10 16 N/A
12:15 pm 12:15 Sunny 54 12.4 20 -6.4 27 27 NW 15 24 30.15 1021 10 16 N/A
12:35 pm 12:35 Sunny 56 13.1 20 -6.4 25 25 NW 13 20 30.14 1021 10 16 N/A
12:55 pm 12:55 Sunny 57 14 21 -6.2 24 24 NNW 9 15 30.12 1020 10 16 N/A
1:15 pm 13:15 Sunny 58 14.5 21 -6.2 24 24 NW 10 17 30.11 1020 10 16 N/A
1:35 pm 13:35 Sunny 59 15.1 20 -6.6 22 22 NW 12 19 30.11 1020 10 16 N/A
1:55 pm 13:55 Sunny 61 16.1 17 -8.2 18 18 NNW 14 22 30.09 1019 10 16 N/A
2:15 pm 14:15 Sunny 62 16.8 17 -8.1 17 17 NNW 14 22 30.08 1019 10 16 N/A
2:35 pm 14:35 Sunny 63 17 17 -8.3 17 17 NNW 15 24 30.07 1018 10 16 N/A
2:55 pm 14:55 Sunny 63 17.2 17 -8.1 17 17 NW 14 22 30.06 1018 10 16 N/A
3:15 pm 15:15 Sunny 63 17 18 -8 17 17 WNW 13 20 30.06 1018 10 16 N/A
3:35 pm 15:35 Sunny 63 17.1 17 -8.5 17 17 NW 13 20 30.05 1018 10 16 N/A
3:55 pm 15:55 Sunny 62 16.8 17 -8.1 17 17 NW 8 13 30.05 1018 10 16 N/A
4:15 pm 16:15 Sunny 61 16.3 16 -8.7 17 17 NW 8 13 30.07 1018 10 16 N/A
4:35 pm 16:35 Sunny 59 15.1 16 -9 18 18 NW 7 11 30.07 1018 10 16 N/A
4:55 pm 16:55 Sunny 54 12.4 16 -9 22 22 NW 5 7 30.10 1019 10 16 N/A
5:15 pm 17:15 Clear 51 10.8 15 -9.2 24 24 NW 3 6 30.12 1020 10 16 N/A
5:35 pm 17:35 Clear 48 8.9 15 -9.2 27 27 WNW 3 6 30.14 1021 10 16 N/A
5:55 pm 17:55 Clear 47 8.2 15 -9.4 28 28 NW 6 9 30.15 1021 10 16 N/A
6:15 pm 18:15 Clear 43 6 14 -9.8 31 31 NW 5 7 30.18 1022 10 16 N/A
6:35 pm 18:35 Clear 41 4.8 14 -10.2 33 33 WNW 5 7 30.19 1022 10 16 N/A
6:55 pm 18:55 Clear 41 5.1 14 -10 33 33 W 5 7 30.19 1022 10 16 N/A
7:15 pm 19:15 Clear 42 5.8 15 -9.7 32 32 W 7 11 30.18 1022 10 16 N/A
7:35 pm 19:35 Clear 42 5.5 15 -9.5 33 33 W 7 11 30.18 1022 10 16 N/A
7:55 pm 19:55 Clear 42 5.6 15 -9.6 33 33 W 7 11 30.19 1022 10 16 N/A
8:15 pm 20:15 Clear 40 4.7 14 -10 34 34 WNW 8 13 30.21 1023 10 16 N/A
8:35 pm 20:35 Clear 36 2 13 -10.7 39 39 WNW 7 11 30.24 1024 10 16 N/A
8:55 pm 20:55 Clear 36 2 14 -10.1 41 41 WNW 6 9 30.24 1024 10 16 N/A
9:15 pm 21:15 Clear 36 2.2 14 -10 40 40 WNW 6 9 30.24 1024 10 16 N/A
9:35 pm 21:35 Clear 37 2.5 15 -9.7 41 41 WNW 6 9 30.24 1024 10 16 N/A
9:55 pm 21:55 Clear 36 2 15 -9.4 43 43 WNW 6 9 30.25 1024 10 16 N/A
10:15 pm 22:15 Clear 38 3.4 16 -9.1 40 40 WNW 7 11 30.23 1024 10 16 N/A
10:35 pm 22:35 Clear 38 3.2 16 -9.1 40 40 W 6 9 30.24 1024 10 16 N/A
10:55 pm 22:55 Clear 38 3.3 17 -8.6 42 42 WNW 7 11 30.23 1024 10 16 N/A
11:15 pm 23:15 Clear 37 2.7 16 -8.8 43 43 WNW 8 13 30.24 1024 10 16 N/A
11:35 pm 23:35 Clear 35 1.4 16 -9.1 46 46 WNW 8 13 30.25 1024 10 16 N/A
11:55 pm 23:55 Clear 34 1 16 -8.7 49 49 WNW 8 13 30.26 1025 10 16 N/A

Powered by AerisWeather